TimeCST,TemperatureF,Dew PointF,Humidity,Sea Level PressureIn,VisibilityMPH,Wind Direction,Wind SpeedMPH,Gust SpeedMPH,PrecipitationIn,Events,Conditions,WindDirDegrees,DateUTC
12:13 AM,1.4,-2.2,85,30.09,10.0,Calm,Calm,-,N/A,,Clear,0,2012-12-14 06:13:00
12:33 AM,1.4,-2.2,85,30.09,10.0,Calm,Calm,-,N/A,,Clear,0,2012-12-14 06:33:00
12:53 AM,1.4,-2.2,85,30.09,10.0,Calm,Calm,-,N/A,,Clear,0,2012-12-14 06:53:00
1:13 AM,1.4,-2.2,85,30.09,10.0,Calm,Calm,-,N/A,,Clear,0,2012-12-14 07:13:00
1:33 AM,1.4,-2.2,85,30.08,10.0,Calm,Calm,-,N/A,,Clear,0,2012-12-14 07:33:00
1:53 AM,1.4,-2.2,85,30.09,10.0,Calm,Calm,-,N/A,,Clear,0,2012-12-14 07:53:00
2:13 AM,1.4,-4.0,78,30.09,10.0,Calm,Calm,-,N/A,,Clear,0,2012-12-14 08:13:00
2:33 AM,1.4,-2.2,85,30.09,10.0,Calm,Calm,-,N/A,,Clear,0,2012-12-14 08:33:00
2:53 AM,1.4,-4.0,78,30.10,10.0,Calm,Calm,-,N/A,,Clear,0,2012-12-14 08:53:00
3:13 AM,1.4,-4.0,78,30.10,10.0,Calm,Calm,-,N/A,,Clear,0,2012-12-14 09:13:00
3:33 AM,1.4,-4.0,78,30.09,10.0,Calm,Calm,-,N/A,,Clear,0,2012-12-14 09:33:00
3:53 AM,1.4,-2.2,85,30.08,10.0,Calm,Calm,-,N/A,,Clear,0,2012-12-14 09:53:00
4:13 AM,1.4,-4.0,78,30.08,10.0,Calm,Calm,-,N/A,,Clear,0,2012-12-14 10:13:00
4:33 AM,1.4,-4.0,78,30.07,10.0,Calm,Calm,-,N/A,,Clear,0,2012-12-14 10:33:00
4:53 AM,1.4,-4.0,78,30.07,10.0,Calm,Calm,-,N/A,,Clear,0,2012-12-14 10:53:00
5:13 AM,1.4,-4.0,78,30.07,10.0,Calm,Calm,-,N/A,,Clear,0,2012-12-14 11:13:00
5:33 AM,1.4,-4.0,78,30.06,10.0,Calm,Calm,-,N/A,,Clear,0,2012-12-14 11:33:00
5:53 AM,1.4,-2.2,85,30.06,10.0,Calm,Calm,-,N/A,,Clear,0,2012-12-14 11:53:00
6:13 AM,1.4,-2.2,85,30.05,10.0,Calm,Calm,-,N/A,,Clear,0,2012-12-14 12:13:00
6:33 AM,1.4,-4.0,78,30.05,10.0,Calm,Calm,-,N/A,,Clear,0,2012-12-14 12:33:00
6:53 AM,-0.4,-4.0,85,30.06,10.0,Calm,Calm,-,N/A,,Clear,0,2012-12-14 12:53:00
7:13 AM,1.4,-4.0,78,30.06,10.0,Calm,Calm,-,N/A,,Clear,0,2012-12-14 13:13:00
7:33 AM,1.4,-4.0,78,30.05,10.0,Calm,Calm,-,N/A,,Clear,0,2012-12-14 13:33:00
7:53 AM,1.4,-2.2,85,30.05,10.0,Calm,Calm,-,N/A,,Clear,0,2012-12-14 13:53:00
8:13 AM,6.8,3.2,85,30.05,10.0,Calm,Calm,-,N/A,,Clear,0,2012-12-14 14:13:00
8:33 AM,8.6,5.0,85,30.05,10.0,Calm,Calm,-,N/A,,Clear,0,2012-12-14 14:33:00
8:53 AM,10.4,6.8,85,30.05,10.0,Calm,Calm,-,N/A,,Clear,0,2012-12-14 14:53:00
9:13 AM,12.2,8.6,85,30.05,10.0,Calm,Calm,-,N/A,,Clear,0,2012-12-14 15:13:00
9:33 AM,15.8,12.2,86,30.05,10.0,Calm,Calm,-,N/A,,Clear,0,2012-12-14 15:33:00
9:53 AM,17.6,14.0,86,30.06,10.0,SE,3.5,-,N/A,,Clear,140,2012-12-14 15:53:00
10:13 AM,19.4,15.8,86,30.06,10.0,SE,4.6,-,N/A,,Clear,140,2012-12-14 16:13:00
10:33 AM,19.4,15.8,86,30.06,10.0,SE,5.8,-,N/A,,Clear,140,2012-12-14 16:33:00
10:54 AM,19.4,15.8,86,30.05,10.0,SE,8.1,-,N/A,,Clear,140,2012-12-14 16:54:00
11:13 AM,21.2,15.8,80,30.05,10.0,SE,6.9,-,N/A,,Clear,140,2012-12-14 17:13:00
11:33 AM,23.0,15.8,74,30.05,10.0,SE,6.9,-,N/A,,Clear,140,2012-12-14 17:33:00
11:53 AM,21.2,15.8,80,30.04,10.0,SSE,5.8,-,N/A,,Clear,150,2012-12-14 17:53:00
12:13 PM,23.0,15.8,74,30.02,10.0,SE,8.1,-,N/A,,Clear,140,2012-12-14 18:13:00
12:33 PM,23.0,17.6,80,30.01,10.0,SE,5.8,-,N/A,,Clear,130,2012-12-14 18:33:00
12:53 PM,24.8,17.6,74,30.01,10.0,ESE,5.8,-,N/A,,Clear,120,2012-12-14 18:53:00
1:13 PM,24.8,19.4,80,29.98,10.0,ESE,8.1,-,N/A,,Clear,120,2012-12-14 19:13:00
1:34 PM,26.6,19.4,74,29.97,10.0,SE,6.9,-,N/A,,Clear,130,2012-12-14 19:34:00
1:53 PM,26.6,19.4,74,29.95,10.0,ESE,6.9,-,N/A,,Clear,120,2012-12-14 19:53:00
2:13 PM,28.4,21.2,74,29.95,10.0,SE,11.5,-,N/A,,Clear,130,2012-12-14 20:13:00
2:33 PM,28.4,21.2,74,29.94,10.0,SE,10.4,-,N/A,,Clear,140,2012-12-14 20:33:00
2:53 PM,28.4,21.2,74,29.94,10.0,SE,8.1,-,N/A,,Clear,140,2012-12-14 20:53:00
3:13 PM,28.4,21.2,74,29.93,10.0,SE,10.4,-,N/A,,Clear,140,2012-12-14 21:13:00
3:33 PM,28.4,21.2,74,29.93,10.0,SSE,9.2,16.1,N/A,,Clear,150,2012-12-14 21:33:00
3:53 PM,28.4,21.2,74,29.93,10.0,SE,8.1,-,N/A,,Clear,140,2012-12-14 21:53:00
4:13 PM,26.6,23.0,86,29.93,10.0,SE,9.2,-,N/A,,Clear,130,2012-12-14 22:13:00
4:33 PM,26.6,23.0,86,29.92,10.0,SE,8.1,-,N/A,,Clear,130,2012-12-14 22:33:00
4:53 PM,26.6,21.2,80,29.92,10.0,SE,4.6,-,N/A,,Clear,130,2012-12-14 22:53:00
5:13 PM,26.6,21.2,80,29.92,10.0,SE,9.2,-,N/A,,Clear,140,2012-12-14 23:13:00
5:33 PM,26.6,21.2,80,29.90,10.0,SE,8.1,-,N/A,,Clear,130,2012-12-14 23:33:00
5:53 PM,26.6,21.2,80,29.90,10.0,SE,6.9,-,N/A,,Clear,140,2012-12-14 23:53:00
6:33 PM,26.6,21.2,80,29.89,10.0,SE,8.1,-,N/A,,Clear,140,2012-12-15 00:33:00
6:53 PM,26.6,21.2,80,29.89,10.0,SE,9.2,-,N/A,,Clear,130,2012-12-15 00:53:00
7:13 PM,26.6,23.0,86,29.89,10.0,SE,6.9,-,N/A,,Clear,130,2012-12-15 01:13:00
7:33 PM,24.8,21.2,86,29.89,10.0,SE,6.9,-,N/A,,Clear,130,2012-12-15 01:33:00
7:53 PM,26.6,21.2,80,29.89,10.0,SE,6.9,-,N/A,,Clear,140,2012-12-15 01:53:00
8:13 PM,26.6,23.0,86,29.88,10.0,SE,6.9,-,N/A,,Clear,130,2012-12-15 02:13:00
8:33 PM,26.6,23.0,86,29.88,10.0,SE,5.8,-,N/A,,Clear,140,2012-12-15 02:33:00
8:53 PM,26.6,23.0,86,29.88,10.0,SE,10.4,-,N/A,,Scattered Clouds,140,2012-12-15 02:53:00
9:13 PM,26.6,23.0,86,29.87,10.0,SE,9.2,-,N/A,,Mostly Cloudy,140,2012-12-15 03:13:00
9:33 PM,26.6,24.8,93,29.87,10.0,SE,8.1,-,N/A,,Mostly Cloudy,130,2012-12-15 03:33:00
9:53 PM,26.6,24.8,93,29.87,10.0,SE,9.2,-,N/A,,Scattered Clouds,140,2012-12-15 03:53:00
10:13 PM,26.6,23.0,86,29.86,7.0,SE,6.9,-,N/A,,Clear,130,2012-12-15 04:13:00
10:33 PM,26.6,23.0,86,29.85,10.0,SE,8.1,-,N/A,,Clear,130,2012-12-15 04:33:00
10:53 PM,26.6,23.0,86,29.85,10.0,ESE,8.1,-,N/A,,Clear,120,2012-12-15 04:53:00
11:13 PM,26.6,24.8,93,29.84,10.0,ESE,6.9,-,N/A,,Clear,120,2012-12-15 05:13:00
11:33 PM,26.6,24.8,93,29.84,10.0,SE,6.9,-,N/A,,Clear,130,2012-12-15 05:33:00
11:53 PM,26.6,24.8,93,29.83,10.0,SE,6.9,-,N/A,,Clear,130,2012-12-15 05:53:00